Location: Taukkyan
(23.1052°N, 94.0030°E)
Time: 11:53:27
(UTC+00:00)

DELTA 2 R/B (1) - Pass Details

Date: 06 July 2020
Orbit: 790 x 803 km, 39.6° (Epoch: 14 August)

Event Time Altitude Azimuth Distance (km) Brightness Sun altitude
Rises 13:15:30 0° 232° (SW) 3,269 7.1 -9.4°
Reaches altitude 10° 13:17:59 10° 231° (SW) 2,343 6.3 -9.8°
Maximum altitude 13:23:31 82° 144° (SE) 800 3.5 -10.9°
Drops below altitude 10° 13:29:05 10° 57° (ENE) 2,356 5.8 -12.0°
Sets 13:31:34 0° 57° (ENE) 3,289 6.5 -12.5°
